TimeEST,TemperatureF,Dew PointF,Humidity,Sea Level PressureIn,VisibilityMPH,Wind Direction,Wind SpeedMPH,Gust SpeedMPH,PrecipitationIn,Events,Conditions,WindDirDegrees,DateUTC
12:15 AM,42.8,19.4,39,30.00,10.0,West,17.3,23.0,0.00,,Clear,280,2012-12-22 05:15:00
12:35 AM,42.8,19.4,39,30.00,10.0,West,18.4,23.0,0.00,,Clear,270,2012-12-22 05:35:00
12:55 AM,42.8,19.4,39,29.99,10.0,West,13.8,20.7,0.00,,Clear,270,2012-12-22 05:55:00
1:15 AM,42.8,19.4,39,30.00,10.0,West,16.1,24.2,0.00,,Clear,280,2012-12-22 06:15:00
1:35 AM,42.8,19.4,39,30.01,10.0,West,17.3,25.3,0.00,,Clear,280,2012-12-22 06:35:00
1:55 AM,42.8,19.4,39,30.01,10.0,West,20.7,26.5,0.00,,Clear,270,2012-12-22 06:55:00
2:15 AM,41.0,19.4,42,30.01,10.0,West,20.7,26.5,0.00,,Clear,280,2012-12-22 07:15:00
2:35 AM,41.0,19.4,42,30.02,10.0,WNW,15.0,24.2,0.00,,Clear,290,2012-12-22 07:35:00
2:55 AM,41.0,17.6,39,30.02,10.0,West,17.3,23.0,0.00,,Clear,280,2012-12-22 07:55:00
3:15 AM,39.2,19.4,45,30.03,10.0,West,16.1,25.3,0.00,,Clear,280,2012-12-22 08:15:00
3:35 AM,39.2,17.6,42,30.04,10.0,WNW,15.0,23.0,0.00,,Clear,290,2012-12-22 08:35:00
3:55 AM,39.2,19.4,45,30.04,10.0,West,12.7,19.6,0.00,,Clear,280,2012-12-22 08:55:00
4:15 AM,39.2,19.4,45,30.05,10.0,West,16.1,21.9,0.00,,Clear,280,2012-12-22 09:15:00
4:35 AM,39.2,19.4,45,30.05,10.0,West,13.8,-,0.00,,Clear,280,2012-12-22 09:35:00
5:15 AM,37.4,19.4,48,30.07,10.0,West,10.4,-,0.00,,Clear,270,2012-12-22 10:15:00
5:35 AM,37.4,19.4,48,30.08,10.0,West,11.5,-,0.00,,Clear,260,2012-12-22 10:35:00
5:55 AM,37.4,19.4,48,30.08,10.0,West,13.8,17.3,0.00,,Clear,260,2012-12-22 10:55:00
6:15 AM,37.4,19.4,48,30.09,10.0,West,15.0,21.9,0.00,,Clear,270,2012-12-22 11:15:00
6:55 AM,37.4,19.4,48,30.12,10.0,West,11.5,-,0.00,,Clear,270,2012-12-22 11:55:00
7:15 AM,35.6,19.4,52,30.13,10.0,West,10.4,-,0.00,,Clear,280,2012-12-22 12:15:00
7:35 AM,35.6,19.4,52,30.14,10.0,West,9.2,-,0.00,,Clear,280,2012-12-22 12:35:00
7:55 AM,37.4,19.4,48,30.15,10.0,West,10.4,-,0.00,,Clear,270,2012-12-22 12:55:00
8:15 AM,37.4,19.4,48,30.16,10.0,West,10.4,-,0.00,,Clear,270,2012-12-22 13:15:00
8:35 AM,39.2,17.6,42,30.16,10.0,West,12.7,17.3,0.00,,Clear,280,2012-12-22 13:35:00
8:55 AM,41.0,17.6,39,30.18,10.0,WNW,12.7,18.4,0.00,,Clear,290,2012-12-22 13:55:00
9:15 AM,42.8,17.6,36,30.18,10.0,WNW,9.2,16.1,0.00,,Clear,300,2012-12-22 14:15:00
9:35 AM,44.6,17.6,34,30.19,10.0,WNW,10.4,-,0.00,,Clear,300,2012-12-22 14:35:00
9:55 AM,46.4,19.4,34,30.19,10.0,West,8.1,-,0.00,,Clear,280,2012-12-22 14:55:00
10:15 AM,46.4,17.6,32,30.19,10.0,WNW,8.1,-,0.00,,Clear,290,2012-12-22 15:15:00
10:35 AM,48.2,17.6,30,30.18,7.0,WNW,8.1,-,0.00,,Clear,290,2012-12-22 15:35:00
10:55 AM,48.2,17.6,30,30.19,10.0,West,11.5,-,0.00,,Clear,280,2012-12-22 15:55:00
11:15 AM,48.2,19.4,32,30.18,10.0,West,10.4,-,0.00,,Clear,270,2012-12-22 16:15:00
11:35 AM,50.0,17.6,28,30.18,10.0,West,6.9,-,0.00,,Clear,260,2012-12-22 16:35:00
11:55 AM,51.8,17.6,26,30.17,10.0,West,9.2,-,0.00,,Clear,270,2012-12-22 16:55:00
12:15 PM,51.8,17.6,26,30.17,10.0,NW,10.4,17.3,0.00,,Clear,310,2012-12-22 17:15:00
12:35 PM,53.6,15.8,22,30.16,10.0,WNW,13.8,-,0.00,,Clear,300,2012-12-22 17:35:00
12:55 PM,53.6,14.0,21,30.15,10.0,WNW,10.4,-,0.00,,Clear,300,2012-12-22 17:55:00
1:15 PM,55.4,17.6,23,30.14,10.0,NW,9.2,-,0.00,,Clear,310,2012-12-22 18:15:00
1:35 PM,55.4,14.0,20,30.13,10.0,NW,8.1,17.3,0.00,,Clear,310,2012-12-22 18:35:00
1:55 PM,57.2,14.0,18,30.12,10.0,WNW,10.4,-,0.00,,Clear,290,2012-12-22 18:55:00
2:15 PM,57.2,14.0,18,30.11,10.0,NW,6.9,-,0.00,,Clear,310,2012-12-22 19:15:00
2:35 PM,57.2,14.0,18,30.12,10.0,West,9.2,-,0.00,,Clear,280,2012-12-22 19:35:00
2:55 PM,57.2,17.6,21,30.12,10.0,WSW,9.2,-,0.00,,Clear,240,2012-12-22 19:55:00
3:15 PM,57.2,17.6,21,30.12,10.0,WSW,6.9,-,0.00,,Clear,250,2012-12-22 20:15:00
3:35 PM,57.2,17.6,21,30.12,10.0,West,6.9,-,0.00,,Clear,260,2012-12-22 20:35:00
3:55 PM,57.2,17.6,21,30.13,10.0,WSW,8.1,-,0.00,,Clear,240,2012-12-22 20:55:00
4:15 PM,57.2,19.4,23,30.13,10.0,WSW,6.9,-,0.00,,Clear,250,2012-12-22 21:15:00
4:35 PM,55.4,19.4,25,30.14,10.0,Calm,Calm,-,0.00,,Clear,0,2012-12-22 21:35:00
4:55 PM,55.4,19.4,25,30.14,10.0,West,5.8,-,0.00,,Clear,260,2012-12-22 21:55:00
5:15 PM,53.6,21.2,28,30.15,10.0,Calm,Calm,-,0.00,,Clear,0,2012-12-22 22:15:00
5:35 PM,50.0,24.8,37,30.15,10.0,West,3.5,-,0.00,,Clear,270,2012-12-22 22:35:00
5:55 PM,46.4,28.4,50,30.16,10.0,Calm,Calm,-,0.00,,Clear,0,2012-12-22 22:55:00
6:15 PM,44.6,30.2,57,30.16,10.0,Calm,Calm,-,0.00,,Clear,0,2012-12-22 23:15:00
6:55 PM,41.0,30.2,65,30.17,10.0,Calm,Calm,-,0.00,,Clear,0,2012-12-22 23:55:00
7:15 PM,41.0,32.0,70,30.18,10.0,WSW,4.6,-,0.00,,Clear,250,2012-12-23 00:15:00
7:35 PM,42.8,28.4,57,30.18,10.0,WSW,3.5,-,0.00,,Clear,250,2012-12-23 00:35:00
7:55 PM,44.6,26.6,49,30.18,10.0,Calm,Calm,-,0.00,,Clear,0,2012-12-23 00:55:00
8:15 PM,41.0,30.2,65,30.18,10.0,Calm,Calm,-,0.00,,Clear,0,2012-12-23 01:15:00
8:35 PM,39.2,30.2,70,30.19,10.0,Calm,Calm,-,0.00,,Clear,0,2012-12-23 01:35:00
9:15 PM,37.4,30.2,75,30.19,10.0,Calm,Calm,-,0.00,,Clear,0,2012-12-23 02:15:00
9:35 PM,37.4,30.2,75,30.19,10.0,Calm,Calm,-,0.00,,Clear,0,2012-12-23 02:35:00
9:55 PM,39.2,30.2,70,30.19,10.0,Calm,Calm,-,0.00,,Clear,0,2012-12-23 02:55:00
10:15 PM,37.4,30.2,75,30.19,10.0,Calm,Calm,-,0.00,,Clear,0,2012-12-23 03:15:00
10:35 PM,37.4,30.2,75,30.19,10.0,Calm,Calm,-,0.00,,Clear,0,2012-12-23 03:35:00
10:55 PM,37.4,30.2,75,30.19,10.0,Calm,Calm,-,0.00,,Clear,0,2012-12-23 03:55:00
11:15 PM,35.6,30.2,81,30.19,10.0,Calm,Calm,-,0.00,,Clear,0,2012-12-23 04:15:00
11:35 PM,35.6,30.2,81,30.19,10.0,Calm,Calm,-,0.00,,Clear,0,2012-12-23 04:35:00
11:55 PM,37.4,28.4,70,30.18,10.0,Calm,Calm,-,0.00,,Clear,0,2012-12-23 04:55:00